Total_Precipitation_Accumulation
0.18 0.18 0.18 0.17 0.18 0.20 0.22 0.23 0.24 0.22 0.23 0.27 0.33 0.37 0.38 0.45 0.64 0.81 0.79 0.71 0.77 0.86 0.96 1.06 1.11 1.15 1.14 1.02 0.97 0.94 0.95 1.03 0.98 0.83 0.77 0.79 0.68 0.52 0.46 0.43 0.41 0.40 0.36
0.11 0.11 0.13 0.17 0.18 0.20 0.23 0.26 0.26 0.24 0.22 0.21 0.24 0.28 0.31 0.38 0.54 0.86 1.02 1.04 1.01 0.94 1.00 1.18 1.28 1.23 1.13 1.04 1.03 0.98 0.97 1.06 1.00 0.91 0.89 0.83 0.75 0.66 0.56 0.50 0.43 0.39 0.38
0.11 0.11 0.12 0.16 0.19 0.22 0.24 0.24 0.23 0.24 0.24 0.23 0.25 0.29 0.34 0.35 0.41 0.61 0.84 0.96 0.99 0.96 1.02 1.06 1.09 1.15 1.12 1.04 0.99 0.95 0.94 1.04 1.04 0.96 1.02 1.00 0.90 0.78 0.65 0.54 0.47 0.44 0.39
0.14 0.15 0.16 0.19 0.20 0.21 0.21 0.22 0.24 0.26 0.26 0.28 0.30 0.34 0.35 0.32 0.32 0.45 0.60 0.71 0.77 0.82 0.87 0.91 0.93 0.97 1.03 1.09 1.03 0.97 0.99 1.01 1.02 1.01 1.05 1.18 1.09 0.92 0.74 0.61 0.52 0.48 0.44
0.14 0.15 0.16 0.18 0.20 0.19 0.21 0.24 0.27 0.28 0.29 0.33 0.38 0.37 0.34 0.31 0.33 0.45 0.50 0.46 0.51 0.57 0.60 0.62 0.72 0.87 0.96 1.02 0.97 0.95 1.00 1.01 1.00 1.05 1.08 1.21 1.24 1.07 0.83 0.64 0.56 0.54 0.52
0.22 0.23 0.20 0.21 0.23 0.21 0.22 0.25 0.29 0.33 0.37 0.39 0.40 0.44 0.42 0.33 0.34 0.37 0.35 0.31 0.34 0.40 0.43 0.42 0.42 0.54 0.72 0.84 0.86 0.86 0.91 0.97 1.01 1.02 1.09 1.17 1.23 1.13 0.96 0.81 0.67 0.56 0.53
0.28 0.34 0.33 0.33 0.33 0.31 0.31 0.35 0.40 0.47 0.50 0.50 0.49 0.48 0.46 0.43 0.35 0.28 0.24 0.24 0.27 0.33 0.37 0.37 0.30 0.29 0.44 0.59 0.70 0.74 0.75 0.74 0.83 0.98 1.08 1.10 1.20 1.24 1.16 0.97 0.85 0.74 0.59
0.47 0.53 0.59 0.60 0.59 0.60 0.64 0.62 0.62 0.64 0.63 0.61 0.59 0.59 0.63 0.58 0.46 0.34 0.27 0.24 0.26 0.32 0.35 0.35 0.34 0.34 0.37 0.44 0.56 0.64 0.68 0.66 0.64 0.72 0.88 1.06 1.22 1.36 1.34 1.22 1.11 0.99 0.81
0.64 0.68 0.74 0.78 0.79 0.79 0.79 0.78 0.79 0.83 0.81 0.79 0.76 0.76 0.80 0.84 0.72 0.54 0.44 0.38 0.38 0.38 0.40 0.39 0.38 0.36 0.34 0.31 0.39 0.45 0.51 0.60 0.60 0.62 0.73 0.95 1.13 1.28 1.43 1.37 1.23 1.04 0.86
0.55 0.61 0.73 0.86 0.92 0.87 0.83 0.85 0.91 0.99 0.97 0.95 0.94 0.96 0.98 1.03 0.91 0.65 0.55 0.51 0.56 0.57 0.60 0.56 0.43 0.35 0.29 0.25 0.32 0.40 0.42 0.44 0.55 0.60 0.66 0.78 0.94 1.06 1.19 1.20 1.06 0.97 0.81
0.57 0.62 0.68 0.78 0.88 0.86 0.87 0.91 0.98 1.01 1.03 1.03 0.99 0.95 0.96 1.00 0.92 0.69 0.60 0.59 0.65 0.70 0.65 0.62 0.57 0.41 0.30 0.25 0.26 0.34 0.36 0.43 0.52 0.58 0.69 0.82 0.97 1.09 1.08 1.07 1.02 0.87 0.77
0.72 0.77 0.84 0.90 0.88 0.85 0.94 1.01 1.08 1.13 1.11 1.08 1.10 1.03 0.97 0.96 0.87 0.71 0.56 0.53 0.64 0.77 0.76 0.73 0.69 0.53 0.37 0.33 0.27 0.26 0.27 0.30 0.46 0.53 0.59 0.71 0.84 1.00 1.08 1.12 1.10 0.97 0.79
0.76 0.82 0.92 0.99 1.01 1.01 1.05 1.09 1.21 1.27 1.25 1.18 1.17 1.18 1.10 1.03 0.99 0.78 0.62 0.53 0.60 0.74 0.86 0.86 0.75 0.61 0.49 0.40 0.36 0.33 0.29 0.29 0.40 0.50 0.50 0.55 0.62 0.77 1.06 1.28 1.39 1.31 1.05
0.61 0.65 0.71 0.79 0.86 0.97 1.08 1.11 1.15 1.23 1.27 1.28 1.24 1.17 1.13 1.11 1.14 0.99 0.79 0.64 0.65 0.77 0.87 0.90 0.79 0.73 0.63 0.53 0.49 0.44 0.38 0.35 0.39 0.47 0.52 0.58 0.70 0.84 1.02 1.22 1.42 1.45 1.28
0.57 0.58 0.63 0.71 0.80 0.94 1.08 1.13 1.05 1.06 1.12 1.11 1.05 1.00 1.00 1.02 1.06 0.99 0.84 0.79 0.80 0.89 0.99 1.10 1.05 0.96 0.88 0.78 0.71 0.66 0.61 0.55 0.49 0.52 0.64 0.70 0.79 0.83 0.92 1.07 1.28 1.38 1.25
0.57 0.57 0.61 0.67 0.77 0.88 1.00 1.05 0.90 0.77 0.76 0.76 0.68 0.62 0.60 0.63 0.73 0.76 0.70 0.65 0.69 0.80 0.95 1.11 1.08 1.00 0.97 0.95 0.91 0.85 0.80 0.74 0.69 0.69 0.74 0.81 0.84 0.87 0.94 1.04 1.16 1.24 1.19
0.63 0.59 0.61 0.64 0.70 0.76 0.85 0.96 0.99 0.84 0.65 0.57 0.47 0.37 0.35 0.38 0.51 0.60 0.65 0.63 0.62 0.66 0.78 0.94 0.95 0.93 0.95 1.00 0.98 0.91 0.83 0.83 0.86 0.84 0.81 0.85 0.90 0.93 0.97 1.04 1.09 1.16 1.19
0.80 0.70 0.62 0.61 0.67 0.72 0.78 0.86 0.95 1.00 0.91 0.72 0.50 0.31 0.27 0.30 0.40 0.54 0.65 0.64 0.66 0.65 0.71 0.83 0.89 0.92 0.95 1.01 0.98 0.97 0.93 0.96 0.99 0.95 0.92 0.93 1.00 1.03 1.00 1.01 1.07 1.09 1.15
0.70 0.73 0.65 0.60 0.63 0.70 0.73 0.78 0.86 0.92 1.00 0.96 0.74 0.45 0.30 0.32 0.41 0.56 0.66 0.65 0.74 0.76 0.78 0.83 0.88 0.89 0.91 0.97 0.98 1.00 1.02 1.05 1.05 1.05 1.06 1.06 1.10 1.14 1.05 0.99 1.05 1.12 1.10
0.53 0.50 0.49 0.57 0.61 0.67 0.73 0.76 0.81 0.89 0.95 0.97 0.87 0.63 0.38 0.34 0.43 0.61 0.71 0.78 0.83 0.84 0.84 0.83 0.88 0.89 0.91 0.94 0.97 0.99 1.02 1.07 1.08 1.08 1.12 1.15 1.15 1.15 1.08 1.05 1.04 1.08 1.04
0.50 0.44 0.34 0.45 0.59 0.65 0.71 0.76 0.78 0.84 0.90 0.93 0.84 0.55 0.34 0.34 0.48 0.64 0.78 0.87 0.86 0.86 0.86 0.85 0.87 0.85 0.86 0.90 0.93 0.95 1.04 1.08 1.07 1.07 1.11 1.16 1.16 1.13 1.09 1.07 1.05 1.05 1.08
0.52 0.51 0.38 0.41 0.54 0.60 0.63 0.76 0.80 0.82 0.84 0.86 0.77 0.52 0.40 0.44 0.58 0.71 0.86 0.91 0.86 0.85 0.82 0.83 0.83 0.82 0.79 0.83 0.92 0.99 1.06 1.08 1.06 1.05 1.08 1.12 1.13 1.11 1.08 1.07 1.08 1.10 1.11
0.45 0.50 0.41 0.39 0.49 0.48 0.55 0.73 0.78 0.78 0.81 0.82 0.68 0.57 0.55 0.65 0.74 0.84 0.93 0.94 0.88 0.86 0.84 0.83 0.81 0.78 0.73 0.74 0.79 0.86 0.97 1.02 0.98 0.97 1.03 1.03 1.04 1.01 0.97 0.94 0.95 1.01 1.03
0.39 0.47 0.40 0.33 0.37 0.47 0.58 0.69 0.75 0.74 0.76 0.79 0.70 0.60 0.61 0.69 0.77 0.82 0.88 0.86 0.80 0.80 0.81 0.78 0.72 0.68 0.67 0.73 0.77 0.73 0.73 0.74 0.73 0.78 0.85 0.88 0.93 0.96 0.92 0.88 0.91 0.94 0.99
0.40 0.46 0.39 0.30 0.31 0.40 0.55 0.67 0.74 0.75 0.76 0.75 0.67 0.60 0.61 0.67 0.73 0.72 0.71 0.70 0.68 0.69 0.66 0.65 0.67 0.66 0.62 0.56 0.57 0.56 0.55 0.51 0.49 0.53 0.65 0.75 0.79 0.87 0.92 0.93 0.97 1.03 1.03
0.36 0.42 0.38 0.30 0.28 0.36 0.49 0.60 0.66 0.70 0.72 0.70 0.67 0.65 0.66 0.67 0.63 0.60 0.61 0.61 0.61 0.61 0.58 0.56 0.57 0.53 0.52 0.48 0.45 0.44 0.41 0.37 0.35 0.39 0.46 0.57 0.67 0.77 0.84 0.86 0.88 0.96 1.01